Lancaster, OH

3:32 AM EDT on March 26, 2017 (GMT -0400)
Fairfield County

Weather History for KLHQ - October, 2012

Change the Weather History Date:

Wednesday, October 31, 2012

  Actual Average Record
Temperature  
Mean Temperature 39 °F -  
Max Temperature 42 °F 61 °F 81 °F (1971)
Min Temperature 37 °F 36 °F 19 °F (1988)
Degree Days  
Heating Degree Days 26    
Moisture  
Dew Point 36 °F    
Average Humidity 90    
Maximum Humidity 93    
Minimum Humidity 79    
Precipitation  
Precipitation 0.12 in - - ()
Sea Level Pressure  
Sea Level Pressure 29.64 in    
Wind  
Wind Speed 10 mph (WNW)    
Max Wind Speed 15 mph    
Max Gust Speed 23 mph    
Visibility 6 miles    
Events Rain    
Averages and records for this station are not official NWS values.
T = Trace of Precipitation, MM = Missing Value Source: NWS Daily Summary

Daily Weather History Graph

Daily Weather History Graph

Search for Another Location

Airport or City:

Trip Planner

Search our weather history database for the weather conditions in past years. The results will help you decide how hot, cold, wet, or windy it might be!

Date:

Astronomy

Oct. 31, 2012 Rise Set
Actual Time 7:58 AM EDT 6:29 PM EDT
Civil Twilight 7:30 AM EDT 6:57 PM EDT
Nautical Twilight 6:58 AM EDT 7:28 PM EDT
Astronomical Twilight 6:27 AM EDT 8:00 PM EDT
Moon 7:39 PM EDT (10/31) 9:38 AM EDT (10/31)
Length of Visible Light 11h 26m
Length of Day
10h 30m
Full, 97% of the Moon is Illuminated
Oct 31
Full
Nov 6
Last Quarter
Nov 13
New
Nov 20
First Quarter
Nov 28
Full

Hourly Weather History & Observations

Time (EDT) Temp. Windchill Dew Point Humidity Pressure Visibility Wind Dir Wind Speed Gust Speed Precip Events Conditions
12:02 AM 39.2 °F 32.5 °F 35.6 °F 87% 29.54 in 10.0 mi NW 10.4 mph 20.7 mph 0.00 in   Overcast
12:33 AM 39.2 °F 32.0 °F 35.6 °F 87% 29.54 in 5.0 mi NW 11.5 mph 20.7 mph 0.00 in   Overcast
12:53 AM 39.0 °F 34.0 °F 36.0 °F 89% 29.56 in 7.0 mi NW 6.9 mph 20.7 mph 0.00 in Rain Light Rain
1:43 AM 37.4 °F 29.8 °F 35.6 °F 93% 29.55 in 7.0 mi WNW 11.5 mph 17.3 mph 0.03 in Rain Light Rain
1:53 AM 37.9 °F 30.9 °F 35.1 °F 89% 29.56 in 8.0 mi WNW 10.4 mph 18.4 mph 0.03 in Rain Light Rain
2:23 AM 37.4 °F 30.8 °F 33.8 °F 87% 29.55 in 6.0 mi WNW 9.2 mph - 0.01 in   Overcast
2:37 AM 37.4 °F 29.8 °F 33.8 °F 87% 29.55 in 8.0 mi WNW 11.5 mph - 0.01 in   Overcast
2:53 AM 37.0 °F 30.4 °F 35.1 °F 93% 29.57 in 7.0 mi WNW 9.2 mph - 0.01 in   Overcast
3:33 AM 37.4 °F 30.3 °F 35.6 °F 93% 29.56 in 7.0 mi WNW 10.4 mph 19.6 mph 0.00 in   Overcast
3:40 AM 37.4 °F 30.8 °F 35.6 °F 93% 29.57 in 8.0 mi WNW 9.2 mph 17.3 mph 0.00 in   Overcast
3:53 AM 37.9 °F 32.7 °F 35.1 °F 89% 29.58 in 6.0 mi WNW 6.9 mph - 0.00 in   Overcast
4:35 AM 37.4 °F 29.8 °F 35.6 °F 93% 29.57 in 5.0 mi WNW 11.5 mph 18.4 mph N/A   Overcast
4:53 AM 37.9 °F 31.5 °F 35.1 °F 89% 29.59 in 5.0 mi West 9.2 mph 17.3 mph 0.00 in Rain Light Rain
5:53 AM 37.9 °F 31.5 °F 35.1 °F 89% 29.61 in 10.0 mi WNW 9.2 mph 17.3 mph 0.01 in   Overcast
6:36 AM 37.4 °F 30.8 °F 35.6 °F 93% 29.60 in 3.0 mi WNW 9.2 mph 16.1 mph N/A   Overcast
6:53 AM 37.9 °F 30.9 °F 36.0 °F 93% 29.61 in 3.0 mi WNW 10.4 mph - N/A   Overcast
7:43 AM 37.4 °F 29.8 °F 35.6 °F 93% 29.61 in 10.0 mi WNW 11.5 mph 17.3 mph N/A   Overcast
7:53 AM 37.9 °F 30.5 °F 35.1 °F 89% 29.62 in 10.0 mi West 11.5 mph - N/A   Overcast
8:03 AM 37.4 °F 29.3 °F 35.6 °F 93% 29.61 in 10.0 mi West 12.7 mph 18.4 mph N/A   Overcast
8:53 AM 37.9 °F 31.5 °F 36.0 °F 93% 29.64 in 7.0 mi West 9.2 mph - N/A   Overcast
9:53 AM 39.0 °F 32.3 °F 36.0 °F 89% 29.64 in 10.0 mi WNW 10.4 mph - N/A   Overcast
10:29 AM 39.2 °F 33.6 °F 35.6 °F 87% 29.64 in 10.0 mi WNW 8.1 mph - N/A   Overcast
10:53 AM 39.9 °F 34.5 °F 35.1 °F 83% 29.65 in 10.0 mi WNW 8.1 mph - N/A   Overcast
11:53 AM 41.0 °F 35.8 °F 36.0 °F 82% 29.66 in 10.0 mi WNW 8.1 mph 16.1 mph 0.00 in   Overcast
12:53 PM 41.0 °F 35.8 °F 35.1 °F 79% 29.67 in 10.0 mi WNW 8.1 mph 16.1 mph N/A   Overcast
1:53 PM 41.0 °F 36.4 °F 36.0 °F 82% 29.67 in 10.0 mi WNW 6.9 mph - N/A   Overcast
3:53 PM 41.0 °F 35.8 °F 37.0 °F 86% 29.68 in 8.0 mi WNW 8.1 mph - 0.00 in   Overcast
4:53 PM 41.0 °F 35.2 °F 37.0 °F 86% 29.69 in 8.0 mi West 9.2 mph - 0.00 in   Overcast
5:06 PM 39.2 °F 30.8 °F 37.4 °F 93% 29.69 in 3.0 mi West 15.0 mph 23.0 mph 0.01 in Rain Light Rain
5:18 PM 39.2 °F 32.0 °F 37.4 °F 93% 29.69 in 2.5 mi West 11.5 mph 20.7 mph 0.01 in Rain Light Rain
5:46 PM 39.2 °F 31.2 °F 37.4 °F 93% 29.70 in 2.0 mi West 13.8 mph 19.6 mph 0.02 in Rain Light Rain
5:53 PM 39.9 °F 32.9 °F 37.0 °F 89% 29.72 in 2.0 mi West 11.5 mph 20.7 mph 0.03 in Rain Light Rain
6:00 PM 39.2 °F 30.8 °F 37.4 °F 93% 29.70 in 2.5 mi West 15.0 mph 23.0 mph 0.00 in   Overcast
6:02 PM 39.2 °F 30.8 °F 37.4 °F 93% 29.70 in 3.0 mi West 15.0 mph 23.0 mph 0.00 in   Overcast
6:23 PM 39.2 °F 31.6 °F 37.4 °F 93% 29.71 in 3.0 mi West 12.7 mph - 0.00 in   Overcast
6:42 PM 39.2 °F 32.5 °F 37.4 °F 93% 29.71 in 4.0 mi West 10.4 mph - 0.00 in Rain Light Rain
6:53 PM 39.9 °F 32.5 °F 37.0 °F 89% 29.73 in 4.0 mi West 12.7 mph 23.0 mph 0.00 in Rain Light Rain
6:59 PM 39.2 °F 31.6 °F 37.4 °F 93% 29.72 in 3.0 mi West 12.7 mph 23.0 mph 0.00 in Rain Light Rain
8:53 PM 39.0 °F 31.0 °F 36.0 °F 89% 29.75 in 4.0 mi West 13.8 mph 21.9 mph 0.01 in   Overcast
9:09 PM 39.2 °F 32.0 °F 35.6 °F 87% 29.74 in 4.0 mi West 11.5 mph 20.7 mph N/A   Overcast
9:53 PM 39.0 °F 31.4 °F 36.0 °F 89% 29.76 in 5.0 mi West 12.7 mph 19.6 mph N/A   Overcast
10:53 PM 39.0 °F 31.8 °F 36.0 °F 89% 29.76 in 5.0 mi West 11.5 mph - 0.00 in Rain Light Rain
11:53 PM 39.0 °F 32.3 °F 36.0 °F 89% 29.76 in 6.0 mi West 10.4 mph - 0.03 in Rain Light Rain